FW2015 Weather Reports


time (UTC)temp
C
wind
direction
speed
KPH
gust
KPH
rain 1hr
cm
rain 24hr
cm
rain mn
cm
humidity
%
barometer
mb
20260504194546 13 219 20.9 32.2 0.00 0.00 0.00 82 1010.5
20260504193037 13 233 19.3 33.8 0.00 0.00 0.00 81 1010.6
20260504191539 13 160 17.7 33.8 0.00 0.00 0.00 80 1010.8
20260504190030 13 157 19.3 32.2 0.00 0.00 0.00 80 1011.0
20260504184533 14 192 20.9 32.2 0.00 0.00 0.00 78 1011.3
20260504183027 14 218 20.9 32.2 0.00 0.00 0.00 78 1011.4
20260504181531 14 177 16.1 29.0 0.00 0.00 0.00 79 1011.4
20260504180024 13 203 19.3 37.0 0.00 0.00 0.00 79 1011.8
20260504174522 13 179 17.7 32.2 0.00 0.00 0.00 80 1012.0
20260504173021 13 205 17.7 32.2 0.00 0.00 0.00 80 1012.0
20260504171519 13 232 19.3 32.2 0.00 0.00 0.00 81 1012.2
20260504140111 13 168 14.5 29.0 0.00 0.00 0.00 79 1013.7
20260504081519 11 266 16.1 24.1 0.00 0.00 0.00 75 1014.6
20260504044554 11 250 11.3 19.3 0.00 0.00 0.00 68 1013.7
20260504043050 11 229 11.3 22.5 0.00 0.00 0.00 63 1013.6
20260504041546 11 235 14.5 25.7 0.00 0.00 0.00 60 1013.5
20260504040046 11 256 12.9 25.7 0.00 0.00 0.00 61 1013.4
20260504034542 11 264 14.5 24.1 0.00 0.00 0.00 62 1013.2
20260504033049 11 261 11.3 20.9 0.00 0.00 0.00 63 1013.1
20260504031538 11 264 12.9 22.5 0.00 0.00 0.00 60 1013.2
20260504030038 11 257 14.5 24.1 0.00 0.00 0.00 57 1013.1
20260504024552 11 260 11.3 19.3 0.00 0.00 0.00 60 1013.1
20260504023036 11 243 12.9 17.7 0.00 0.00 0.00 60 1013.1
20260504021545 12 236 12.9 20.9 0.00 0.00 0.00 56 1013.1
20260504020036 12 265 11.3 19.3 0.00 0.00 0.00 58 1013.1
20260504014535 12 264 12.9 20.9 0.00 0.00 0.00 58 1013.0
20260504013038 12 274 12.9 19.3 0.00 0.00 0.00 55 1013.0
20260504011532 12 221 12.9 19.3 0.00 0.00 0.00 54 1012.7
20260504010030 12 264 9.7 16.1 0.00 0.00 0.00 57 1012.3
20260504004540 13 238 8.0 14.5 0.00 0.00 0.00 55 1012.3
20260504003028 12 262 6.4 14.5 0.00 0.00 0.00 53 1012.1
20260504001528 13 264 9.7 16.1 0.00 0.00 0.00 50 1012.0
20260504000027 13 248 8.0 14.5 0.00 0.00 0.00 53 1011.7
20260503234529 13 266 6.4 19.3 0.00 0.00 0.00 46 1011.6
20260503233030 14 273 4.8 17.7 0.00 0.00 0.00 44 1011.5
20260503231526 14 349 11.3 25.7 0.00 0.00 0.00 46 1011.4
20260503230026 14 295 16.1 30.6 0.00 0.00 0.00 40 1011.4
20260503224524 14 294 19.3 35.4 0.00 0.00 0.00 43 1011.3
20260503223023 14 295 24.1 35.4 0.00 0.00 0.00 42 1011.2
20260503221522 14 280 22.5 35.4 0.00 0.00 0.00 44 1011.1
20260503220020 14 311 29.0 40.2 0.00 0.00 0.00 40 1011.0
20260503214519 14 324 24.1 41.8 0.00 0.00 0.00 39 1011.0
20260503213019 14 286 27.4 43.5 0.00 0.00 0.00 45 1010.8
20260503211520 13 296 24.1 43.5 0.00 0.00 0.00 42 1010.9
20260503210016 13 322 17.7 30.6 0.00 0.00 0.00 45 1010.8
20260503204514 13 287 29.0 41.8 0.00 0.00 0.00 42 1010.8
20260503203014 13 297 27.4 40.2 0.00 0.00 0.00 38 1010.6
20260503201510 13 291 24.1 38.6 0.00 0.00 0.00 41 1010.7
20260503200010 13 314 20.9 51.5 0.00 0.00 0.00 44 1010.8